TimeCST,TemperatureF,Dew PointF,Humidity,Sea Level PressureIn,VisibilityMPH,Wind Direction,Wind SpeedMPH,Gust SpeedMPH,PrecipitationIn,Events,Conditions,WindDirDegrees,DateUTC
12:53 AM,-9999,-9999,N/A,30.19,10.0,South,9.2,-,N/A,,Clear,170,2013-12-11 06:53:00
1:53 AM,-9999,-9999,N/A,30.20,10.0,Calm,Calm,-,N/A,,Clear,0,2013-12-11 07:53:00
2:53 AM,-9999,-9999,N/A,30.19,10.0,South,6.9,-,N/A,,Clear,180,2013-12-11 08:53:00
3:53 AM,-9999,-9999,N/A,30.20,10.0,SSW,4.6,-,N/A,,Clear,210,2013-12-11 09:53:00
4:53 AM,-9999,-9999,N/A,30.22,10.0,NNW,3.5,-,N/A,,Clear,340,2013-12-11 10:53:00
5:53 AM,-9999,-9999,N/A,30.24,10.0,West,3.5,-,N/A,,Clear,280,2013-12-11 11:53:00
6:53 AM,-9999,-9999,N/A,30.28,10.0,Calm,Calm,-,N/A,,Clear,0,2013-12-11 12:53:00
7:53 AM,-9999,-9999,N/A,30.30,10.0,SW,9.2,-,N/A,,Clear,220,2013-12-11 13:53:00
8:53 AM,-9999,-9999,N/A,30.34,10.0,West,9.2,-,N/A,,Clear,270,2013-12-11 14:53:00
9:53 AM,-9999,-9999,N/A,30.40,10.0,WNW,16.1,-,N/A,,Clear,300,2013-12-11 15:53:00
10:53 AM,-9999,-9999,N/A,30.42,10.0,WNW,16.1,-,N/A,,Clear,300,2013-12-11 16:53:00
11:53 AM,-9999,-9999,N/A,30.44,10.0,NW,17.3,23.0,N/A,,Clear,310,2013-12-11 17:53:00
12:53 PM,-9999,-9999,N/A,30.42,10.0,NW,18.4,-,N/A,,Clear,320,2013-12-11 18:53:00
1:53 PM,-9999,-9999,N/A,30.41,10.0,NNW,15.0,-,N/A,,Clear,340,2013-12-11 19:53:00
2:53 PM,-9999,-9999,N/A,30.42,10.0,NNW,11.5,-,N/A,,Clear,340,2013-12-11 20:53:00
3:53 PM,-9999,-9999,N/A,30.45,10.0,NNW,12.7,-,N/A,,Clear,330,2013-12-11 21:53:00
4:53 PM,-9999,-9999,N/A,30.45,10.0,NNW,10.4,-,N/A,,Clear,330,2013-12-11 22:53:00
5:53 PM,-9999,-9999,N/A,30.48,10.0,NNW,4.6,-,N/A,,Clear,340,2013-12-11 23:53:00
6:53 PM,-9999,-9999,N/A,30.49,10.0,ENE,3.5,-,N/A,,Clear,60,2013-12-12 00:53:00
7:53 PM,-9999,-9999,N/A,30.52,10.0,East,3.5,-,N/A,,Clear,90,2013-12-12 01:53:00
8:53 PM,-9999,-9999,N/A,30.53,10.0,NE,3.5,-,N/A,,Clear,40,2013-12-12 02:53:00
9:53 PM,-9999,-9999,N/A,30.54,10.0,ENE,3.5,-,N/A,,Clear,70,2013-12-12 03:53:00
10:53 PM,-9999,-9999,N/A,30.55,10.0,Calm,Calm,-,N/A,,Clear,0,2013-12-12 04:53:00
11:53 PM,-9999,-9999,N/A,30.54,10.0,Calm,Calm,-,N/A,,Clear,0,2013-12-12 05:53:00